Weather in Staropavlovskaya

Russia / Stavropol Krai     43°50′43″N   43°38′11″E
temp.,
°C
wind,
m/s
gust,
m/s
humid.,
%
clouds,
%
prec.,
mm/h
press.,
hPa
HPBL,
m
4 august, wed
wed400:00+23w36490 0.0 101265
03:00+22wsw22491 0.0 101222
06:00+23wsw22524 0.0 101315
09:00+30w12394 0.0 1013539
12:00+34n33320 0.0 10132015
15:00+35nnw3328100 0.0 10122769
18:00+28wsw5752100 0.0 1012124
21:00+25sw5855100 0.1 1014109
5 august, thu
thu500:00+24w3459100 0.0 101477
03:00+22w3463100 0.0 101463
06:00+22nw35660 0.1 1015111
09:00+28nnw21504 0.1 1015626
12:00+32e34370 0.0 10131499
15:00+33ese3433100 0.0 10122160
18:00+31s45432 0.0 1011186
21:00+25wsw33564 0.0 101146
6 august, fri
fri600:00+24nnw22610 0.0 101124
03:00+22wnw22610 0.0 101017
06:00+22wnw22650 0.0 101141
09:00+29wsw01450 0.0 1010505
12:00+33ese45360 0.0 10081410
15:00+35e46320 0.0 10062102
18:00+34sse22375 0.0 100546
21:00+27e3840100 0.0 1006131
7 august, sat
sat700:00+23e2344100 0.0 100663
03:00+20n12556 0.0 100512
06:00+21nw236357 0.0 100555
09:00+27n22491 0.0 1005483
12:00+34n21335 0.0 10041113
15:00+36n112752 0.0 10031610
18:00+32sw4541100 0.0 100394
21:00+26wnw8155798 0.1 1006407
8 august, sun
sun800:00+22w346816 0.4 100847
03:00+22w1166100 0.5 100911
06:00+23wnw335999 0.0 101045
09:00+31nw123687 0.0 1009645
12:00+35nw2229100 0.0 10091533
15:00+37ssw012579 0.0 10082728
18:00+29w7104899 0.0 1011398
21:00+22n3381100 1.8 101448